Other Surface Observations
Issued by NWS

Current Version | Previous Version | Text Only | Print | Product List | Glossary On
Versions: 1 2 3 4 5 6 7 8 9 10 11 12 13 14 15 16 17 18 19 20 21 22 23 24 25 26 27 28 29 30 31 32 33 34 35 36 37 38 39 40 41 42 43 44 45 46 47 48 49 50
000
SXUS52 KTAE 221518
OSOTAE
OSOTAE
North Florida/South Alabama/Southwest Georgia Weather Roundup
National Weather Service Tallahassee Florida
1100 AM EDT WED OCT 22 2014

Note: "fair" indicates few or no clouds below 12,000 feet with no
significant weather and/or obstructions to visibility.

!FLZ017-115-028-034-025-221600
...North Florida...

CITY           SKY/WX    TMP DP  RH WIND       PRES   REMARKS
TALLAHASSEE    MOSUNNY   72  48  42 N10       30.07R
APALACHICOLA   SUNNY     74  53  48 NE10      30.05S
PERRY          SUNNY     68  50  52 NE6       30.05F
CROSS CITY       N/A     72  52  49 NE6       30.04S
JACKSONVILLE   SUNNY     67  55  65 N10       30.04R
$$

!FLZ112-006-005-002-011-221600
...Florida Panhandle...

CITY           SKY/WX    TMP DP  RH WIND       PRES   REMARKS
MARIANNA       SUNNY     67  53  61 NE12      30.08S
BONIFAY        NOT AVBL
PANAMA CITY NW FAIR      71  51  49 NE8       30.07R
TYNDALL AFB    SUNNY     71  55  56 NE10      30.06S
TYND DRONE APT NOT AVBL
DE FUNIAK SPR  FAIR      66  51  57 N8        30.09F
EGLIN AFB      MOSUNNY   70  50  48 NE10      30.07F
DESTIN         SUNNY     71  53  52 NE7       30.08S
HURLBURT       SUNNY     70  48  44 NE9       30.07S
CRESTVIEW      SUNNY     69  53  56 NE9       30.11S
PENSACOLA      SUNNY     69  52  54 NE7       30.08S
$$

!ALZ063-066-221600
...South Alabama...

CITY           SKY/WX    TMP DP  RH WIND       PRES   REMARKS
DOTHAN         SUNNY     64  51  62 N8        30.14R
OZARK CAIRNS   SUNNY     65  49  55 N13       30.11R
FT RUCKER HELI SUNNY     64  48  56 NE8       30.10S
RUCKER HELI 3  FAIR      63  48  59 NE10G16   30.13S
RUCKER HELI 2  FAIR      63  48  58 NE10      30.11S
FLORALA APT    SUNNY     68  52  56 NE12      30.12S
ANDALUSIA      SUNNY     71  50  47 E8        30.11S
TROY           SUNNY     62  44  51 NE10      30.13S
EUFALA         FAIR      63  45  51 NE5       30.10F
MOBILE         SUNNY     67  53  61 NE9       30.11S
$$

!GAZ120>161-221600
...Southwest and South Central Georgia...

CITY           SKY/WX    TMP DP  RH WIND       PRES   REMARKS
THOMASVILLE    FAIR      68  50  52 NE8       30.09R
BAINBRIDGE     SUNNY     72  54  53 NE10G16   30.09S
MOODY AFB      SUNNY     67  46  47 NE7       30.07R
VALDOSTA       SUNNY     67  45  45 NE9       30.07R
MOULTRIE       SUNNY     66  52  59 NE6       30.08F
BLAKELY        SUNNY     68  52  56 NE6         N/A
ALBANY         SUNNY     66  49  54 E6        30.11S
TIFTON         FAIR      63  48  57 E5        30.08S
FITZGERALD     FAIR      65  45  49 N5        30.10S
CORDELE        FAIR      63  47  55 NE5       30.09F
AMERICUS       FAIR      59  45  58 NE8       30.11S
HOMERVILLE     FAIR      68  52  56 CALM      30.08S
$$

!GMZ750-755-770-775-221600
...Coastal and Buoy Obs...

STATION/POSITION TIME  TEMP    WIND        PRES    VSBY  WAVE
                       AIR SEA DIR/SP/G                  HT/PER
                 (UTC) (F)     (DEG/KT/KT) (MB)    (MI)  (FT/S)
KEATON BEACH     1500   68      50/  9/ 11 1017.5F
CEDAR KEY        1500   70      50/  9/ 12 1017.0F
C TOWER          1500   71      40/ 16/ 18 1017.1R
APALACHICOLA BUO 1500   76 81   50/ 14/ 17 1016.4R         2/ 4
PANAMA CITY BUOY 1355   76 81   50/ 14/ 17 1016.8          3/ 5
MOBILE BUOY      1404   76 79   60/ 14/ 16 1018.3          3/ 5
ORANGE BCH AL BU 1500   72 78   40/ 16/ 19 1017.8R         2/ 4
$$



USA.gov is the U.S. government's official web portal to all federal, state and local government web resources and services.